Regional Weather Roundup
Issued by NWS

Home | Current Version | Previous Version | Graphics & Text | Print | Product List | Glossary On
Versions: 1 2 3 4 5 6 7 8 9 10 11 12 13 14 15 16 17 18 19 20 21 22 23 24 25 26 27 28 29 30 31 32 33 34 35 36 37 38 39 40 41 42 43 44 45 46 47 48 49 50
000
ASUS43 KBIS 020302
RWRND

NORTH DAKOTA REGIONAL WEATHER ROUNDUP
NATIONAL WEATHER SERVICE BISMARCK ND
1000 PM CDT SUN MAY 01 2016

NOTE: "FAIR" INDICATES FEW OR NO CLOUDS BELOW 12,000 FEET WITH NO
SIGNIFICANT WEATHER AND/OR OBSTRUCTIONS TO VISIBILITY.


NDZ001>003-009>011-017-020400-
NORTHWEST NORTH DAKOTA

CITY           SKY/WX    TMP DP  RH WIND       PRES   REMARKS
WILLISTON      PTCLDY    55  31  39 SW6       30.12F
MINOT          CLEAR     57  26  30 SE5       30.11F
MINOT AFB      CLEAR     53  27  37 S7        30.09F
$$

NDZ018>021-031>035-040>046-020400-
SOUTHWEST NORTH DAKOTA

CITY           SKY/WX    TMP DP  RH WIND       PRES   REMARKS
BISMARCK       CLEAR     49  32  52 CALM      30.16S
DICKINSON      CLEAR     49  29  46 NW5       30.16R
GARRISON         N/A     52  27  38 CALM      30.13S
HETTINGER ARPT CLEAR     41  31  67 W5        30.19R
$$

NDZ004>008-012>016-024-026-027-054-020400-
NORTHEAST NORTH DAKOTA

CITY           SKY/WX    TMP DP  RH WIND       PRES   REMARKS
GRAND FORKS    PTCLDY    54  30  40 E7        30.12S
GRND FRKS AFB  CLEAR     47  34  59 SW3       30.12F
DEVILS LAKE    CLEAR     53  32  44 SW6       30.13S
$$

NDZ022-023-025-028>030-036>039-047>053-020400-
SOUTHEAST NORTH DAKOTA

CITY           SKY/WX    TMP DP  RH WIND       PRES   REMARKS
FARGO          CLEAR     54  27  35 CALM      30.13R
JAMESTOWN      CLEAR     50  29  44 CALM      30.14S
$$





USA.gov is the U.S. government's official web portal to all federal, state and local government web resources and services.